DW3637 Weather Reports


Display with metric or nautical units.
time (UTC)temp
F
wind
direction
speed
MPH
gust
MPH
rain 1hr
in
rain 24hr
in
rain mn
in
humidity
%
barometer
mb
20260506062517 62 203 1.0 4.0 0.00 0.00 0.00 76 1008.2
20260506061517 63 248 4.0 8.0 0.00 0.00 0.00 76 1008.2
20260506060556 63 225 3.0 12.0 0.00 0.00 0.00 75 1008.3
20260506050517 64 225 4.0 10.0 0.00 0.00 0.00 70 1008.4
20260506044516 64 248 2.0 7.0 0.00 0.00 0.00 70 1008.6
20260506043516 64 225 2.0 5.0 0.00 0.00 0.00 70 1008.5
20260506042557 64 248 2.0 6.0 0.00 0.00 0.00 70 1008.5
20260506041518 64 248 2.0 8.0 0.00 0.00 0.00 69 1008.6
20260506040517 64 248 2.0 6.0 0.00 0.00 0.00 69 1008.6
20260506035517 64 225 2.0 5.0 0.00 0.00 0.00 69 1008.6
20260506034517 64 225 2.0 7.0 0.00 0.00 0.00 69 1008.6
20260506033541 64 248 2.0 8.0 0.00 0.00 0.00 68 1008.7
20260506032520 64 225 2.0 5.0 0.00 0.00 0.00 68 1008.7
20260506031519 64 248 2.0 7.0 0.00 0.00 0.00 67 1008.7
20260506030520 64 248 4.0 11.0 0.00 0.00 0.00 67 1008.9
20260506025517 64 225 4.0 9.0 0.00 0.00 0.00 66 1008.6
20260506024523 64 248 2.0 7.0 0.00 0.00 0.00 66 1008.7
20260506023517 65 248 3.0 8.0 0.00 0.00 0.00 66 1008.6
20260506022517 65 248 2.0 6.0 0.00 0.00 0.00 65 1008.6
20260506021537 65 248 2.0 8.0 0.00 0.00 0.00 64 1008.5
20260506020518 65 248 2.0 6.0 0.00 0.00 0.00 64 1008.4
20260506015516 66 248 2.0 6.0 0.00 0.00 0.00 63 1008.4
20260506014517 66 248 2.0 6.0 0.00 0.00 0.00 62 1008.3
20260506013517 66 248 3.0 9.0 0.00 0.00 0.00 62 1008.2
20260506012517 67 248 4.0 12.0 0.00 0.00 0.00 61 1008.1
20260506011516 67 225 2.0 7.0 0.00 0.00 0.00 61 1008.0
20260506010517 68 248 2.0 8.0 0.00 0.00 0.00 61 1007.8
20260506005516 68 248 3.0 8.0 0.00 0.00 0.00 60 1007.7
20260506004516 69 248 3.0 8.0 0.00 0.00 0.00 60 1007.6
20260506003516 69 248 4.0 10.0 0.00 0.00 0.00 59 1007.5
20260506002516 69 248 2.0 8.0 0.00 0.00 0.00 59 1007.4
20260506001516 69 225 4.0 11.0 0.00 0.00 0.00 58 1007.3
20260506000517 70 248 4.0 10.0 0.00 0.00 0.00 58 1007.0
20260505235516 70 225 5.0 11.0 0.00 0.00 0.00 56 1006.9
20260505234536 71 225 3.0 9.0 0.00 0.00 0.00 56 1006.6
20260505233516 71 248 6.0 14.0 0.00 0.00 0.00 55 1006.5
20260505232517 72 248 4.0 11.0 0.00 0.00 0.00 55 1006.3
20260505231516 72 248 4.0 10.0 0.00 0.00 0.00 54 1006.2
20260505230516 73 248 4.0 9.0 0.00 0.00 0.00 53 1006.1
20260505225517 74 248 5.0 12.0 0.00 0.00 0.00 51 1006.0
20260505224536 74 248 4.0 9.0 0.00 0.00 0.00 51 1005.9
20260505223525 75 225 5.0 10.0 0.00 0.00 0.00 50 1005.7
20260505222536 75 248 4.0 11.0 0.00 0.00 0.00 50 1005.7
20260505221516 76 225 4.0 13.0 0.00 0.00 0.00 49 1005.7
20260505220516 76 248 5.0 13.0 0.00 0.00 0.00 48 1005.5
20260505215516 76 225 6.0 14.0 0.00 0.00 0.00 48 1005.4
20260505214516 77 248 6.0 13.0 0.00 0.00 0.00 47 1005.2
20260505213517 77 248 7.0 14.0 0.00 0.00 0.00 47 1005.2
20260505212536 78 248 6.0 12.0 0.00 0.00 0.00 47 1005.5
20260505211516 78 225 6.0 13.0 0.00 0.00 0.00 47 1005.3
20260505210516 78 225 8.0 15.0 0.00 0.00 0.00 46 1005.2
20260505205516 79 248 6.0 15.0 0.00 0.00 0.00 45 1005.2
20260505204521 79 248 6.0 12.0 0.00 0.00 0.00 44 1004.9
20260505203525 79 248 5.0 10.0 0.00 0.00 0.00 45 1004.8
20260505202517 80 248 7.0 14.0 0.00 0.00 0.00 44 1004.9
20260505201516 81 248 6.0 17.0 0.00 0.00 0.00 43 1004.9
20260505200536 81 248 7.0 18.0 0.00 0.00 0.00 42 1005.0
20260505195516 81 248 5.0 13.0 0.00 0.00 0.00 41 1005.0
20260505194516 81 248 6.0 14.0 0.00 0.00 0.00 41 1004.9
20260505193516 81 225 7.0 15.0 0.00 0.00 0.00 41 1005.0
20260505192516 82 248 5.0 10.0 0.00 0.00 0.00 42 1005.0
20260505191616 82 248 7.0 15.0 0.00 0.00 0.00 42 1005.0
20260505190517 82 248 6.0 14.0 0.00 0.00 0.00 41 1005.2
20260505185516 82 248 7.0 16.0 0.00 0.00 0.00 41 1005.4
20260505184516 82 225 6.0 13.0 0.00 0.00 0.00 41 1005.4
20260505183516 81 248 5.0 12.0 0.00 0.00 0.00 44 1005.7
20260505182516 81 248 6.0 15.0 0.00 0.00 0.00 44 1005.6
20260505181516 81 248 6.0 12.0 0.00 0.00 0.00 44 1005.5
20260505180516 80 248 5.0 11.0 0.00 0.00 0.00 45 1005.8
20260505175516 80 248 6.0 13.0 0.00 0.00 0.00 44 1005.9
20260505174518 80 248 5.0 13.0 0.00 0.00 0.00 44 1006.1
20260505173516 80 225 5.0 8.0 0.00 0.00 0.00 45 1006.3
20260505172516 79 248 6.0 13.0 0.00 0.00 0.00 44 1006.4
20260505171521 79 248 6.0 14.0 0.00 0.00 0.00 45 1006.6
20260505170516 78 248 5.0 9.0 0.00 0.00 0.00 46 1006.6
20260505165516 78 248 4.0 11.0 0.00 0.00 0.00 47 1006.8
20260505164516 78 248 5.0 12.0 0.00 0.00 0.00 48 1007.1
20260505163515 77 225 5.0 12.0 0.00 0.00 0.00 49 1007.2
20260505162516 77 248 5.0 12.0 0.00 0.00 0.00 50 1007.4
20260505161516 76 248 5.0 11.0 0.00 0.00 0.00 51 1007.6
20260505160532 75 248 5.0 11.0 0.00 0.00 0.00 51 1007.6
20260505152516 70 248 4.0 10.0 0.00 0.00 0.00 59 1008.5
20260505151556 69 248 4.0 9.0 0.00 0.00 0.00 60 1008.6
20260505150516 68 248 4.0 8.0 0.00 0.00 0.00 61 1008.7
20260505140518 65 248 1.0 3.0 0.00 0.00 0.00 69 1009.0
20260505124518 60 248 3.0 9.0 0.00 0.00 0.00 76 1009.3
20260505123517 59 248 4.0 8.0 0.00 0.00 0.00 76 1009.3
20260505122537 59 248 3.0 8.0 0.00 0.00 0.00 77 1009.2
20260505121517 58 248 3.0 6.0 0.00 0.00 0.00 79 1009.2
20260505120517 57 248 3.0 8.0 0.00 0.00 0.00 81 1009.4
20260505115517 56 248 2.0 5.0 0.00 0.00 0.00 83 1009.5
20260505114518 56 248 2.0 4.0 0.00 0.00 0.00 83 1009.4
20260505113517 56 248 2.0 5.0 0.00 0.00 0.00 83 1009.6
20260505112517 55 248 2.0 5.0 0.00 0.00 0.00 85 1009.5
20260505111519 55 248 3.0 9.0 0.00 0.00 0.00 85 1009.4
20260505110517 55 248 1.0 6.0 0.00 0.00 0.00 85 1009.1
20260505101537 53 248 2.0 5.0 0.00 0.00 0.00 86 1008.7
20260505100558 53 248 2.0 5.0 0.00 0.00 0.00 86 1008.5
20260505095537 52 225 1.0 4.0 0.00 0.00 0.00 86 1008.6
20260505094517 52 248 1.0 4.0 0.00 0.00 0.00 85 1008.5
20260505093537 52 248 1.0 3.0 0.00 0.00 0.00 85 1008.6
20260505092521 52 0.0 1.0 0.00 0.00 0.00 84 1008.7
20260505091520 52 0.0 1.0 0.00 0.00 0.00 83 1008.8
20260505090517 52 248 1.0 3.0 0.00 0.00 0.00 83 1008.8
20260505085520 52 0.0 1.0 0.00 0.00 0.00 82 1008.7
20260505084517 53 0.0 3.0 0.00 0.00 0.00 82 1008.7
20260505083517 53 0.0 2.0 0.00 0.00 0.00 81 1008.7
20260505082517 53 0.0 4.0 0.00 0.00 0.00 80 1008.9
20260505081517 53 225 1.0 2.0 0.00 0.00 0.00 80 1008.9
20260505080557 53 0.0 2.0 0.00 0.00 0.00 79 1008.8
20260505075518 54 248 1.0 3.0 0.00 0.00 0.00 78 1008.9
20260505074517 54 248 1.0 3.0 0.00 0.00 0.00 78 1009.1
20260505073517 54 248 1.0 3.0 0.00 0.00 0.00 78 1009.0
20260505072537 53 248 1.0 3.0 0.00 0.00 0.00 78 1009.0
20260505071519 53 248 1.0 4.0 0.00 0.00 0.00 78 1009.1
20260505070517 53 248 1.0 3.0 0.00 0.00 0.00 78 1009.0